Location: Ermatingen
(47.6706°N, 9.0857°E)
Time: 15:14:35
(UTC+00:00)

SPOT 3 Rocket - Pass Details

Date: 18 September 2020
Orbit: 780 x 794 km, 98.8° (Epoch: 23 October)

Event Time Altitude Azimuth Distance (km) Brightness Sun altitude
Exits shadow 20:03:39 41° 200° (SSW) 1,125 4.2 -25.3°
Maximum altitude 20:05:15 60° 258° (WSW) 893 3.9 -25.5°
Drops below altitude 10° 20:10:22 10° 339° (NNW) 2,344 6.7 -26.3°
Sets 20:12:44 0° 343° (NNW) 3,278 7.6 -26.6°
